Location: Jihlava
(49.4000°N, 15.5830°E)
Time: 21:05:34
(UTC+01:00)

ISS - Visible Passes

Search period start: 25 February 2021 00:00
Search period end: 07 March 2021 00:00
Orbit: 417 x 422 km, 51.6° (Epoch: 26 February)

Date Brightness Start Highest point End Pass type
(mag) Time Alt. Az. Time Alt. Az. Time Alt. Az.
25 Feb -2.9 04:50:14 38° S 04:50:41 41° SSE 04:53:53 10° ENE visible
26 Feb -1.3 04:04:45 21° ESE 04:04:45 21° ESE 04:06:18 10° E visible
26 Feb -3.8 05:37:43 20° WSW 05:39:57 80° NNW 05:43:20 10° ENE visible
27 Feb -3.9 04:52:10 70° SW 04:52:29 81° SSE 04:55:52 10° ENE visible
28 Feb -1.7 04:06:33 28° E 04:06:33 28° E 04:08:22 10° ENE visible
28 Feb -3.5 05:39:31 17° W 05:41:55 59° N 05:45:15 10° ENE visible
01 Mar -3.7 04:53:52 55° WNW 04:54:23 66° N 04:57:44 10° ENE visible
02 Mar -2.1 04:08:11 34° ENE 04:08:11 34° ENE 04:10:14 10° ENE visible
02 Mar -3.4 05:41:08 14° WNW 05:43:52 57° N 05:47:12 10° E visible
03 Mar -0.3 03:22:28 12° ENE 03:22:28 12° ENE 03:22:43 10° ENE visible
03 Mar -3.4 04:55:25 40° NW 04:56:18 56° N 04:59:37 10° E visible
04 Mar -2.4 04:09:42 39° NE 04:09:42 39° NE 04:12:03 10° ENE visible
04 Mar -3.6 05:42:40 12° WNW 05:45:45 73° NNE 05:49:07 10° E visible
05 Mar -0.5 03:24:00 14° ENE 03:24:00 14° ENE 03:24:31 10° ENE visible
05 Mar -3.5 04:56:57 34° WNW 04:58:11 62° N 05:01:32 10° E visible
06 Mar -2.8 04:11:15 46° NE 04:11:15 46° NE 04:13:55 10° E visible
06 Mar -3.7 05:44:12 10° WNW 05:47:30 68° SSW 05:50:51 10° ESE visible
